Location: *
(46.1833°N, 22.7667°E)
Time: 11:46:38
(UTC+00:00)

SKYMED 2 - Pass Details

Date: 17 September 2019
Orbit: 621 x 623 km, 97.9° (Epoch: 18 October)

Event Time Altitude Azimuth Distance (km) Brightness Sun altitude
Rises 17:01:03 0° 9° (N) 2,914 7.0 -4.9°
Reaches altitude 10° 17:03:17 10° 5° (N) 2,003 6.2 -5.3°
Maximum altitude 17:07:33 57° 288° (WNW) 739 4.4 -6.0°
Drops below altitude 10° 17:11:47 10° 210° (SSW) 1,986 6.4 -6.7°
Sets 17:13:59 0° 206° (SSW) 2,888 7.2 -7.1°
